TimeEDT,TemperatureF,Dew PointF,Humidity,Sea Level PressureIn,VisibilityMPH,Wind Direction,Wind SpeedMPH,Gust SpeedMPH,PrecipitationIn,Events,Conditions,WindDirDegrees,DateUTC
12:15 AM,44.6,33.8,66,30.03,10.0,North,9.2,-,N/A,,Overcast,10,2012-10-29 04:15:00
12:55 AM,44.6,33.8,66,30.02,10.0,North,6.9,-,N/A,,Overcast,10,2012-10-29 04:55:00
1:15 AM,44.6,32.0,61,30.02,10.0,North,6.9,-,N/A,,Overcast,360,2012-10-29 05:15:00
1:35 AM,44.6,32.0,61,30.02,10.0,North,10.4,-,N/A,,Overcast,360,2012-10-29 05:35:00
1:55 AM,42.8,32.0,66,30.02,10.0,North,9.2,17.3,N/A,,Overcast,360,2012-10-29 05:55:00
2:15 AM,42.8,32.0,66,30.02,10.0,North,8.1,-,N/A,,Overcast,350,2012-10-29 06:15:00
2:55 AM,42.8,32.0,66,30.02,10.0,North,9.2,-,N/A,,Overcast,360,2012-10-29 06:55:00
3:15 AM,41.0,32.0,70,30.02,10.0,NNW,6.9,-,N/A,,Overcast,340,2012-10-29 07:15:00
3:35 AM,41.0,32.0,70,30.01,10.0,NNW,9.2,-,N/A,,Overcast,330,2012-10-29 07:35:00
3:55 AM,41.0,32.0,70,30.01,10.0,North,10.4,-,N/A,,Overcast,350,2012-10-29 07:55:00
4:15 AM,41.0,32.0,70,30.01,10.0,NNW,6.9,-,N/A,,Overcast,340,2012-10-29 08:15:00
4:35 AM,41.0,32.0,70,30.01,10.0,North,10.4,-,N/A,,Overcast,360,2012-10-29 08:35:00
4:55 AM,41.0,32.0,70,30.00,10.0,North,10.4,-,N/A,,Overcast,350,2012-10-29 08:55:00
5:15 AM,41.0,32.0,70,30.01,10.0,NNW,12.7,18.4,N/A,,Overcast,340,2012-10-29 09:15:00
5:35 AM,41.0,30.2,65,30.00,10.0,North,9.2,-,N/A,,Overcast,350,2012-10-29 09:35:00
5:55 AM,41.0,30.2,65,30.01,10.0,NNW,12.7,17.3,N/A,,Overcast,340,2012-10-29 09:55:00
6:15 AM,39.2,30.2,70,30.01,10.0,NNW,9.2,-,N/A,,Overcast,340,2012-10-29 10:15:00
6:35 AM,37.4,30.2,75,30.01,10.0,North,11.5,-,N/A,,Mostly Cloudy,350,2012-10-29 10:35:00
7:15 AM,37.4,30.2,75,30.01,10.0,North,8.1,-,N/A,,Overcast,360,2012-10-29 11:15:00
7:35 AM,37.4,30.2,75,30.01,10.0,North,9.2,17.3,N/A,,Overcast,360,2012-10-29 11:35:00
7:55 AM,37.4,30.2,75,30.01,10.0,North,15.0,18.4,N/A,,Overcast,350,2012-10-29 11:55:00
8:15 AM,37.4,30.2,75,30.02,10.0,North,10.4,-,N/A,,Overcast,350,2012-10-29 12:15:00
8:35 AM,37.4,30.2,75,30.02,10.0,NNW,9.2,18.4,N/A,,Overcast,340,2012-10-29 12:35:00
8:55 AM,37.4,32.0,81,30.02,10.0,North,11.5,17.3,N/A,,Overcast,350,2012-10-29 12:55:00
9:35 AM,37.4,30.2,75,30.02,10.0,North,13.8,18.4,N/A,,Overcast,360,2012-10-29 13:35:00
9:55 AM,37.4,30.2,75,30.02,10.0,NNW,9.2,17.3,N/A,,Overcast,340,2012-10-29 13:55:00
10:15 AM,37.4,30.2,75,30.02,10.0,North,13.8,18.4,N/A,,Overcast,350,2012-10-29 14:15:00
10:35 AM,39.2,30.2,70,30.02,10.0,North,11.5,-,N/A,,Overcast,350,2012-10-29 14:35:00
10:55 AM,39.2,30.2,70,30.02,10.0,NNW,9.2,-,N/A,,Overcast,340,2012-10-29 14:55:00
11:15 AM,39.2,30.2,70,30.01,10.0,North,13.8,18.4,N/A,,Overcast,350,2012-10-29 15:15:00
11:35 AM,39.2,30.2,70,30.01,10.0,NNW,11.5,-,N/A,,Overcast,340,2012-10-29 15:35:00
12:15 PM,41.0,32.0,70,30.00,10.0,NNW,10.4,19.6,N/A,,Overcast,330,2012-10-29 16:15:00
12:35 PM,41.0,32.0,70,29.99,10.0,NNW,12.7,21.9,N/A,,Overcast,340,2012-10-29 16:35:00
12:55 PM,41.0,32.0,70,29.99,10.0,NW,12.7,19.6,N/A,,Overcast,320,2012-10-29 16:55:00
1:15 PM,42.8,32.0,66,29.98,10.0,NNW,12.7,18.4,N/A,,Overcast,330,2012-10-29 17:15:00
1:35 PM,42.8,32.0,66,29.97,10.0,NNW,11.5,23.0,N/A,,Light Drizzle,330,2012-10-29 17:35:00
1:55 PM,41.0,32.0,70,29.97,10.0,NW,12.7,18.4,N/A,,Drizzle,310,2012-10-29 17:55:00
2:15 PM,41.0,32.0,70,29.96,10.0,NW,9.2,-,N/A,,Overcast,320,2012-10-29 18:15:00
2:35 PM,42.8,33.8,70,29.96,10.0,NNW,9.2,-,N/A,,Overcast,330,2012-10-29 18:35:00
2:55 PM,42.8,33.8,70,29.95,10.0,NNW,15.0,19.6,N/A,Rain,Light Rain,330,2012-10-29 18:55:00
3:15 PM,42.8,33.8,70,29.94,10.0,NNW,12.7,19.6,N/A,,Drizzle,330,2012-10-29 19:15:00
3:35 PM,42.8,33.8,70,29.94,10.0,NNW,16.1,20.7,N/A,,Drizzle,340,2012-10-29 19:35:00
3:55 PM,42.8,33.8,70,29.93,10.0,NNW,15.0,23.0,N/A,Rain,Rain,340,2012-10-29 19:55:00
4:15 PM,42.8,33.8,70,29.93,10.0,NNW,11.5,20.7,N/A,Rain,Light Rain,330,2012-10-29 20:15:00
4:35 PM,42.8,33.8,70,29.92,10.0,NW,10.4,19.6,N/A,,Light Drizzle,310,2012-10-29 20:35:00
4:55 PM,44.6,32.0,61,29.91,10.0,NNW,10.4,17.3,N/A,,Overcast,340,2012-10-29 20:55:00
5:15 PM,44.6,30.2,57,29.90,10.0,NNW,10.4,19.6,N/A,,Overcast,340,2012-10-29 21:15:00
5:35 PM,44.6,28.4,53,29.89,10.0,NNW,9.2,24.2,N/A,,Overcast,330,2012-10-29 21:35:00
5:55 PM,44.6,28.4,53,29.88,10.0,NNW,12.7,17.3,N/A,,Overcast,340,2012-10-29 21:55:00
6:15 PM,44.6,26.6,49,29.88,10.0,NW,9.2,-,N/A,,Overcast,320,2012-10-29 22:15:00
6:35 PM,46.4,26.6,46,29.88,10.0,NNW,8.1,-,N/A,,Overcast,340,2012-10-29 22:35:00
6:55 PM,46.4,26.6,46,29.88,10.0,North,18.4,28.8,N/A,,Overcast,350,2012-10-29 22:55:00
7:15 PM,44.6,23.0,43,29.88,10.0,North,16.1,34.5,N/A,,Overcast,360,2012-10-29 23:15:00
7:35 PM,44.6,19.4,37,29.88,10.0,NNW,18.4,36.8,N/A,,Overcast,340,2012-10-29 23:35:00
8:15 PM,44.6,15.8,31,29.86,10.0,North,15.0,27.6,N/A,,Overcast,360,2012-10-30 00:15:00
8:35 PM,44.6,15.8,31,29.86,10.0,NNW,18.4,35.7,N/A,,Overcast,340,2012-10-30 00:35:00
11:35 PM,44.6,23.0,43,29.81,10.0,NNW,9.2,20.7,N/A,,Overcast,330,2012-10-30 03:35:00
11:55 PM,44.6,24.8,46,29.80,10.0,NNW,12.7,18.4,N/A,,Overcast,330,2012-10-30 03:55:00